Regional Weather Roundup
Issued by NWS

Home | Current Version | Previous Version | Graphics & Text | Print | Product List | Glossary On
Versions: 1 2 3 4 5 6 7 8 9 10 11 12 13 14 15 16 17 18 19 20 21 22 23 24 25 26 27 28
000
ASUS45 KBOI 281810
RWRID

IDAHO REGIONAL WEATHER ROUNDUP
NATIONAL WEATHER SERVICE BOISE ID
1200 PM MDT WED SEP 28 2016

NOTE: "FAIR" INDICATES FEW OR NO CLOUDS BELOW 12000 FEET
WITH NO SIGNIFICANT WEATHER AND/OR OBSTRUCTIONS TO VISIBILITY

IDZ012-014-281900-
SOUTHWEST IDAHO


CITY           SKY/WX    TMP DP  RH WIND       PRES   REMARKS
BOISE          SUNNY     77  42  28 S9        30.04F
CALDWELL       SUNNY     76  48  37 E9        30.03F
MOUNTAIN HOME  SUNNY     75  46  34 SE21      30.05F
$$

IDZ016-017-281900-
SOUTHCENTRAL IDAHO


CITY           SKY/WX    TMP DP  RH WIND       PRES   REMARKS
BURLEY         SUNNY     67  49  52 E7        30.15S
JEROME         SUNNY     75  43  31 E12       30.13F
TWIN FALLS     SUNNY     68  50  52 NE6       30.14S
$$

IDZ019>023-281900-
SOUTHEAST IDAHO


CITY           SKY/WX    TMP DP  RH WIND       PRES   REMARKS
IDAHO FALLS    SUNNY     69  47  45 NW5       30.22F
POCATELLO      SUNNY     69  47  45 E6        30.20F
REXBURG        SUNNY     66  44  45 CALM      30.23F
$$

IDZ006-010-011-018-031-032-281900-
CENTRAL IDAHO MOUNTAINS


CITY           SKY/WX    TMP DP  RH WIND       PRES   REMARKS
MCCALL         SUNNY     64  41  42 CALM      30.15F
HAILEY         SUNNY     72  43  35 S3        30.23F
STANLEY          N/A     60  38  43 N5        30.28F
SALMON         SUNNY     61  43  51 CALM      30.19F
CHALLIS        SUNNY     65  38  36 CALM      30.21F
$$

IDZ002-004-006-007-026-281900-
NORTHERN IDAHO


CITY           SKY/WX    TMP DP  RH WIND       PRES   REMARKS
LEWISTON       SUNNY     69  48  47 N3        29.99F
LOWELL           N/A     65  52  62 VRB3      30.01F
COEUR D`ALENE  SUNNY     67  46  47 N15       30.05F
MULLAN PASS    SUNNY     59  43  55 SE8       30.19F
$$




USA.gov is the U.S. government's official web portal to all federal, state and local government web resources and services.